Regional Weather Roundup
Issued by NWS

Home | Current Version | Previous Version | Graphics & Text | Print | Product List | Glossary On
Versions: 1 2 3 4 5 6 7 8 9 10 11 12 13 14 15 16 17 18 19 20 21 22 23 24 25 26 27
000
ASUS45 KSLC 260110
RWRUT

UTAH REGIONAL WEATHER ROUNDUP
NATIONAL WEATHER SERVICE SALT LAKE CITY UT
700 PM MDT SUN JUN 25 2017

UTZ001>011-023>025-260200-

NORTHERN UTAH

CITY           SKY/WX    TMP DP  RH WIND       PRES   REMARKS
BRIGHAM CITY     N/A     90  26  10 NW5       30.11S
HILL AFB         N/A     87  42  20 N7        30.14F
LOGAN            N/A     90  38  16 N6        30.13F
OGDEN            N/A     89  41  18 VRB5      30.11F
SALT LAKE CITY   N/A     92  41  17 N10       30.08F
TOOELE VALLEY    N/A     86  46  25 N12G24    30.10F
WENDOVER         N/A     91  24   9 E10       30.09F
HEBER CITY       N/A     88  28  11 CALM      30.18S
WEST JORDAN      N/A     89  53  29 NW9       30.12F

$$

UTZ011>015-024>027-260200-

CENTRAL/NORTHEAST UTAH

CITY           SKY/WX    TMP DP  RH WIND       PRES   REMARKS
PROVO AIRPORT    N/A     88  46  23 W5        30.10F
MOAB/CANYONLAN   N/A     96   6   3 CALM      30.02F
DELTA            N/A     91  19   7 N3        30.10S
PRICE            N/A     90  16   6 NW13      30.16F
VERNAL         SUNNY     87  33  14 SW3       30.15F

$$

UTZ013>016-019>022-027-260200-

SOUTHERN UTAH

CITY           SKY/WX    TMP DP  RH WIND       PRES   REMARKS
BRYCE CANYON     N/A     79  27  14 W13       30.34F
CEDAR CITY       N/A     92  30  11 NW13      30.15S
MILFORD          N/A     94  19   6 CALM      30.09F
ST GEORGE        N/A    105  30   7 NW6       29.88F HX  98
HANKSVILLE       N/A     99  23   6 W10       30.02F HX  92
BLANDING         N/A     90  25   9 NW10      30.20S

$$

REGIONAL REPORTS     COLORADO/ARIZONA

CITY           SKY/WX    TMP DP  RH WIND       PRES   REMARKS
CRAIG, CO      SUNNY     82  22  11 NW5       30.26S
GRAND JUNCTION SUNNY     93  24   8 W7        30.06F
RIFLE, CO      SUNNY     89  26  10 N10G16    30.15S
MONTROSE, CO   SUNNY     89  22   8 N6        30.14F
CORTEZ, CO     SUNNY     89  27  10 W7G17     30.13F
COLORADO CITY    N/A     99  30   9 W12G21    30.11S HX  92
PAGE, AZ       NOT AVBL
GRAND CANYON     N/A     80  40  23 S7        30.30F
KINGMAN, AZ      N/A    102  34   9 SW9       29.95F HX  96
FLAGSTAFF, AZ    N/A     68  54  60 NE5       30.35F

$$

REGIONAL REPORTS    NEVADA/IDAHO/WYOMING

CITY           SKY/WX    TMP DP  RH WIND       PRES   REMARKS
LAS VEGAS, NV    N/A    111  15   3 SW10G20   29.79F HX 101
ELY, NY          N/A     87  31  13 SW6       30.20S
ELKO, NV         N/A     95  22   7 MISG      30.09F
POCATELLO, ID  SUNNY     87  40  19 NE10      30.15F
BURLEY, ID       N/A     86  40  19 N7        30.08F
FORT BRIDGER,    N/A     81  25  13 NW3       30.36S
EVANSTON, WY   SUNNY     79  28  15 N7        30.33F
ROCK SPRINGS,  SUNNY     77  23  13 SE3       30.31F
KEMMERER, WY     N/A     77  32  19 W9        30.36S

$$




USA.gov is the U.S. government's official web portal to all federal, state and local government web resources and services.